Bodrum Milas, Turkey

2:51 AM EET on December 05, 2016 (GMT +0200)
Bodrum

Weather History for LTFE - December, 2012

Change the Weather History Date:

Wednesday, December 12, 2012

  Actual Average Record
Temperature  
Mean Temperature 52 °F -  
Max Temperature 57 °F - - ()
Min Temperature 46 °F - - ()
Degree Days  
Heating Degree Days 14    
Growing Degree Days 2 (Base 50)    
Moisture  
Dew Point 51 °F    
Average Humidity 91    
Maximum Humidity 100    
Minimum Humidity 87    
Precipitation  
Precipitation 0.00 in - - ()
Sea Level Pressure  
Sea Level Pressure 29.95 in    
Wind  
Wind Speed 4 mph ()    
Max Wind Speed 9 mph    
Max Gust Speed -    
Visibility 5.8 miles    
Events Rain    
T = Trace of Precipitation, MM = Missing Value Source: Averaged Metar Reports

Daily Weather History Graph

Daily Weather History Graph

Search for Another Location

Airport or City:

Trip Planner

Search our weather history database for the weather conditions in past years. The results will help you decide how hot, cold, wet, or windy it might be!

Date:

Astronomy

Dec. 12, 2012 Rise Set
Actual Time 7:14 AM EET 4:52 PM EET
Civil Twilight 6:44 AM EET 5:21 PM EET
Nautical Twilight 6:12 AM EET 5:53 PM EET
Astronomical Twilight 5:40 AM EET 6:25 PM EET
Moon 5:56 AM EET (12/12) 4:09 PM EET (12/12)
Length of Visible Light 10h 36m
Length of Day
9h 38m
Waning Crescent, 1% of the Moon is Illuminated
Dec 12
Waning Crescent
Dec 13
New
Dec 20
First Quarter
Dec 28
Full
Jan 5
Last Quarter

Hourly Weather History & Observations

Time (EET) Temp. Windchill Dew Point Humidity Pressure Visibility Wind Dir Wind Speed Gust Speed Precip Events Conditions
12:20 AM 53.6 °F - 50.0 °F 88% 29.89 in 6.2 mi Variable 2.3 mph - N/A Rain Light Rain Showers
12:50 AM 53.6 °F - 50.0 °F 88% 29.89 in 6.2 mi WNW 6.9 mph - N/A Rain Light Rain Showers
1:20 AM 53.6 °F - 51.8 °F 94% 29.89 in 6.2 mi Calm Calm - N/A Rain Light Rain Showers
1:50 AM 53.6 °F - 51.8 °F 94% 29.89 in 6.2 mi East 4.6 mph - N/A Rain Light Rain Showers
2:20 AM 53.6 °F - 51.8 °F 94% 29.89 in 6.2 mi NNE 3.5 mph - N/A Rain Light Rain Showers
2:50 AM 55.4 °F - 51.8 °F 88% 29.89 in 6.2 mi East 8.1 mph - N/A   Mostly Cloudy
3:20 AM 55.4 °F - 51.8 °F 88% 29.89 in 6.2 mi SSE 5.8 mph - N/A   Mostly Cloudy
3:50 AM 53.6 °F - 51.8 °F 94% 29.89 in 6.2 mi NNE 5.8 mph - N/A   Mostly Cloudy
4:20 AM 55.4 °F - 51.8 °F 88% 29.86 in 6.2 mi ESE 5.8 mph - N/A   Mostly Cloudy
4:50 AM 53.6 °F - 51.8 °F 94% 29.89 in 6.2 mi West 9.2 mph - N/A Rain Light Rain Showers
5:20 AM 55.4 °F - 51.8 °F 88% 29.89 in 6.2 mi Variable 2.3 mph - N/A   Mostly Cloudy
5:50 AM 53.6 °F - 51.8 °F 94% 29.89 in 6.2 mi ESE 5.8 mph - N/A   Mostly Cloudy
6:20 AM 55.4 °F - 51.8 °F 88% 29.89 in 6.2 mi ESE 6.9 mph - N/A Rain Light Rain Showers
6:50 AM 55.4 °F - 51.8 °F 88% 29.89 in 6.2 mi ESE 5.8 mph - N/A   Mostly Cloudy
7:20 AM 53.6 °F - 51.8 °F 94% 29.89 in 5.0 mi SE 3.5 mph - N/A Rain Light Rain Showers
7:50 AM 53.6 °F - 51.8 °F 94% 29.92 in 6.2 mi Variable 2.3 mph - N/A Rain Light Rain Showers
8:20 AM 53.6 °F - 51.8 °F 94% 29.92 in 6.2 mi NNW 3.5 mph - N/A Rain Light Rain Showers
8:50 AM 55.4 °F - 53.6 °F 94% 29.92 in 6.2 mi SE 5.8 mph - N/A Rain Light Rain Showers
9:20 AM 57.2 °F - 53.6 °F 88% 29.92 in 4.3 mi SSE 5.8 mph - N/A Rain Light Rain Showers
9:50 AM 57.2 °F - 53.6 °F 88% 29.92 in 6.2 mi SSW 3.5 mph - N/A Rain Light Rain Showers
10:20 AM 55.4 °F - 53.6 °F 94% 29.95 in 2.2 mi Variable 3.5 mph - N/A Rain Heavy Rain Showers
10:50 AM 55.4 °F - 53.6 °F 94% 29.95 in 3.7 mi Variable 1.2 mph - N/A Rain Light Rain Showers
11:20 AM 55.4 °F - 53.6 °F 94% 29.95 in 6.2 mi Variable 1.2 mph - N/A Rain Light Rain Showers
11:50 AM 55.4 °F - 55.4 °F 100% 29.95 in 6.2 mi ESE 4.6 mph - N/A Rain Light Rain Showers
12:20 PM 55.4 °F - 53.6 °F 94% 29.95 in 6.2 mi SSW 5.8 mph - N/A Rain Light Rain Showers
12:50 PM 55.4 °F - 53.6 °F 94% 29.95 in 6.2 mi West 5.8 mph - N/A Rain Light Rain Showers
1:20 PM 55.4 °F - 53.6 °F 94% 29.95 in 6.2 mi South 6.9 mph - N/A Rain Light Rain Showers
1:50 PM 55.4 °F - 53.6 °F 94% 29.95 in 6.2 mi South 6.9 mph - N/A Rain Light Rain Showers
2:20 PM 55.4 °F - 53.6 °F 94% 29.95 in 6.2 mi East 5.8 mph - N/A Rain Light Rain Showers
2:50 PM 55.4 °F - 51.8 °F 88% 29.95 in 6.2 mi ESE 5.8 mph - N/A   Mostly Cloudy
3:20 PM 55.4 °F - 51.8 °F 88% 29.95 in 6.2 mi ESE 5.8 mph - N/A   Mostly Cloudy
3:50 PM 55.4 °F - 51.8 °F 88% 29.95 in 6.2 mi ESE 3.5 mph - N/A   Mostly Cloudy
4:20 PM 55.4 °F - 51.8 °F 88% 29.95 in 6.2 mi East 3.5 mph - N/A   Mostly Cloudy
4:50 PM 55.4 °F - 51.8 °F 88% 29.98 in 6.2 mi East 3.5 mph - N/A   Mostly Cloudy
5:20 PM 55.4 °F - 51.8 °F 88% 29.98 in 6.2 mi NE 3.5 mph - N/A   Mostly Cloudy
5:50 PM 53.6 °F - 50.0 °F 88% 29.98 in 6.2 mi ENE 3.5 mph - N/A   Mostly Cloudy
6:20 PM 53.6 °F - 50.0 °F 88% 29.98 in 6.2 mi ENE 5.8 mph - N/A Rain Light Rain
6:50 PM 53.6 °F - 50.0 °F 88% 30.01 in 6.2 mi ESE 4.6 mph - N/A   Mostly Cloudy
7:20 PM 51.8 °F - 48.2 °F 88% 30.01 in 6.2 mi ESE 3.5 mph - N/A   Mostly Cloudy
7:50 PM 50.0 °F - 46.4 °F 87% 30.01 in 6.2 mi Variable 1.2 mph - N/A   Mostly Cloudy
8:20 PM 50.0 °F - 46.4 °F 87% 30.01 in 6.2 mi SSE 3.5 mph - N/A   Scattered Clouds
8:50 PM 48.2 °F - 44.6 °F 87% 30.01 in 6.2 mi SSE 3.5 mph - N/A   Scattered Clouds
9:20 PM 46.4 °F 43.5 °F 44.6 °F 93% 30.04 in 6.2 mi SE 5.8 mph - N/A   Scattered Clouds
9:50 PM 46.4 °F 45.2 °F 44.6 °F 93% 30.04 in 4.3 mi East 3.5 mph - N/A   Scattered Clouds
10:20 PM 46.4 °F 44.3 °F 44.6 °F 93% 30.04 in 4.3 mi East 4.6 mph - N/A   Scattered Clouds
10:50 PM 46.4 °F 43.5 °F 44.6 °F 93% 30.04 in 6.2 mi East 5.8 mph - N/A   Scattered Clouds
11:20 PM 46.4 °F 43.5 °F 44.6 °F 93% 30.04 in 4.3 mi SE 5.8 mph - N/A   Scattered Clouds
11:50 PM 46.4 °F 44.3 °F 44.6 °F 93% 30.04 in 4.3 mi ESE 4.6 mph - N/A   Partly Cloudy